Location: Star Camp Observatory
(34.2910°N, 116.3827°W)
Time: 16:39:20
(UTC-08:00)

Envisat - Pass Details

Date: 19 November 2019
Orbit: 764 x 766 km, 98.1° (Epoch: 09 December)

Event Time Altitude Azimuth Distance (km) Brightness Sun altitude
Rises 19:14:11 0° 215° (SW) 3,217 6.7 -31.8°
Reaches altitude 10° 19:18:04 10° 246° (WSW) 2,296 6.2 -32.6°
Maximum altitude 19:19:58 12° 268° (W) 2,159 6.1 -33.0°
Drops below altitude 10° 19:21:53 10° 291° (WNW) 2,302 6.2 -33.4°
Sets 19:25:49 0° 322° (NW) 3,233 6.7 -34.2°
